Liverpool, United Kingdom

9:42 AM BST on August 19, 2017 (GMT +0100)
Liverpool

Weather History for EGGP - January, 2013

Change the Weather History Date:

Friday, January 25, 2013

  Actual Average Record
Temperature  
Mean Temperature 32 °F -  
Max Temperature 35 °F 45 °F 59 °F (2002)
Min Temperature 28 °F 36 °F 28 °F (2013)
Degree Days  
Heating Degree Days 34    
Moisture  
Dew Point 30 °F    
Average Humidity 90    
Maximum Humidity 100    
Minimum Humidity 80    
Precipitation  
Precipitation 0.00 in - - ()
Sea Level Pressure  
Sea Level Pressure 29.77 in    
Wind  
Wind Speed 13 mph ()    
Max Wind Speed 24 mph    
Max Gust Speed 34 mph    
Visibility 3.9 miles    
Events Rain , Snow    
Averages and records for this station are not official NWS values.
T = Trace of Precipitation, MM = Missing Value Source: Averaged Metar Reports

Daily Weather History Graph

Daily Weather History Graph

Search for Another Location

Airport or City:

Trip Planner

Search our weather history database for the weather conditions in past years. The results will help you decide how hot, cold, wet, or windy it might be!

Date:

Astronomy

Jan. 25, 2013 Rise Set
Actual Time 8:06 AM GMT 4:41 PM GMT
Civil Twilight 7:27 AM GMT 5:20 PM GMT
Nautical Twilight 6:44 AM GMT 6:03 PM GMT
Astronomical Twilight 6:03 AM GMT 6:44 PM GMT
Moon 3:23 PM GMT (1/25) 6:39 AM GMT (1/25)
Length of Visible Light 9h 53m
Length of Day
8h 35m
Waxing Gibbous, 97% of the Moon is Illuminated
Jan 25
Waxing Gibbous
Jan 27
Full
Feb 3
Last Quarter
Feb 10
New
Feb 17
First Quarter

Hourly Weather History & Observations

Time (GMT) Temp. Windchill Dew Point Humidity Pressure Visibility Wind Dir Wind Speed Gust Speed Precip Events Conditions
12:20 AM 30.2 °F 20.2 °F 24.8 °F 80% 30.06 in - SSE 12.7 mph - N/A   Clear
12:50 AM 30.2 °F 20.8 °F 24.8 °F 80% 30.06 in - SE 11.5 mph - N/A   Clear
1:20 AM 30.2 °F 21.3 °F 24.8 °F 80% 30.06 in - SE 10.4 mph - N/A   Clear
1:50 AM 30.2 °F 20.8 °F 26.6 °F 86% 30.04 in - SE 11.5 mph - N/A   Clear
2:20 AM 30.2 °F 20.2 °F 26.6 °F 86% 30.04 in - SE 12.7 mph - N/A   Clear
2:50 AM 30.2 °F 20.8 °F 26.6 °F 86% 30.01 in - SE 11.5 mph - N/A   Clear
3:20 AM 28.4 °F 18.5 °F 26.6 °F 93% 30.01 in - SSE 11.5 mph - N/A   Clear
4:20 AM 30.2 °F 19.8 °F 26.6 °F 86% 30.01 in - SSE 13.8 mph - N/A   Clear
5:20 AM 28.4 °F 17.0 °F 26.6 °F 93% 29.98 in - SSE 15.0 mph - N/A   Clear
5:50 AM 28.4 °F 18.0 °F 26.6 °F 93% 29.98 in 6.2 mi SSE 12.7 mph - N/A   Scattered Clouds
6:20 AM 28.4 °F 21.2 °F 24.8 °F 86% 29.98 in 6.2 mi ESE 6.9 mph - N/A   Scattered Clouds
6:50 AM 28.4 °F 19.7 °F 26.6 °F 93% 29.95 in 6.2 mi SE 9.2 mph - N/A   Mostly Cloudy
7:20 AM 30.2 °F 21.3 °F 26.6 °F 86% 29.95 in 6.2 mi SE 10.4 mph - N/A   Scattered Clouds
7:50 AM 30.2 °F 20.8 °F 26.6 °F 86% 29.95 in 4.3 mi SE 11.5 mph - N/A   Scattered Clouds
8:20 AM 30.2 °F 20.2 °F 26.6 °F 86% 29.92 in 4.3 mi SE 12.7 mph - N/A   Scattered Clouds
8:50 AM 32.0 °F 23.6 °F 26.6 °F 80% 29.92 in 4.3 mi SE 10.4 mph - N/A   Scattered Clouds
9:20 AM 32.0 °F 23.6 °F 28.4 °F 87% 29.89 in 4.3 mi SE 10.4 mph - N/A   Scattered Clouds
9:50 AM 32.0 °F 23.6 °F 28.4 °F 87% 29.89 in 5.0 mi SE 10.4 mph - N/A   Mostly Cloudy
10:20 AM 33.8 °F 24.8 °F 30.2 °F 87% 29.89 in 5.0 mi SSE 12.7 mph - N/A   Mostly Cloudy
10:50 AM 33.8 °F 23.9 °F 32.0 °F 93% 29.89 in 0.8 mi SSE 15.0 mph - N/A Snow Light Snow
11:20 AM 33.8 °F 22.8 °F 32.0 °F 93% 29.86 in 4.3 mi SSE 18.4 mph - N/A   Mostly Cloudy
11:50 AM 35.6 °F 24.5 °F 32.0 °F 87% 29.83 in 3.7 mi SSE 20.7 mph - N/A Snow Light Snow Showers
12:20 PM 35.6 °F 24.2 °F 32.0 °F 87% 29.83 in 4.3 mi SSE 21.9 mph - N/A Snow Light Snow Showers
12:50 PM 35.6 °F 24.5 °F 32.0 °F 87% 29.80 in 3.1 mi SSE 20.7 mph - N/A Snow Light Snow Showers
1:20 PM 35.6 °F 24.0 °F 32.0 °F 87% 29.77 in 6.2 mi SSE 23.0 mph - N/A Snow Light Snow Showers
1:50 PM 35.6 °F 24.0 °F 32.0 °F 87% 29.74 in 6.2 mi SSE 23.0 mph - N/A   Mostly Cloudy
2:20 PM 35.6 °F 24.5 °F 30.2 °F 81% 29.71 in 6.2 mi SSE 20.7 mph - N/A   Mostly Cloudy
2:50 PM 35.6 °F 24.0 °F 30.2 °F 81% 29.68 in 6.2 mi SSE 23.0 mph 34.5 mph N/A   Mostly Cloudy
3:20 PM 35.6 °F 23.7 °F 30.2 °F 81% 29.68 in 3.7 mi SSE 24.2 mph - N/A   Mostly Cloudy
3:50 PM 35.6 °F 24.2 °F 32.0 °F 87% 29.65 in 3.1 mi SSE 21.9 mph - N/A   Light Drizzle
4:20 PM 35.6 °F 24.8 °F 32.0 °F 87% 29.65 in 4.3 mi SSE 19.6 mph - N/A   Mostly Cloudy
4:50 PM 33.8 °F 23.2 °F 32.0 °F 93% 29.62 in 4.3 mi SE 17.3 mph - N/A   Scattered Clouds
5:20 PM 33.8 °F 23.2 °F 32.0 °F 93% 29.59 in 5.0 mi SE 17.3 mph - N/A   Mostly Cloudy
5:50 PM 33.8 °F 22.8 °F 32.0 °F 93% 29.56 in 4.3 mi SE 18.4 mph - N/A Rain , Snow Light Rain
6:20 PM 33.8 °F 21.9 °F 32.0 °F 93% 29.53 in 5.0 mi SE 21.9 mph - N/A Rain Light Rain
6:50 PM 33.8 °F 21.9 °F 32.0 °F 93% 29.53 in 5.0 mi SE 21.9 mph - N/A Rain Light Rain
7:20 PM 33.8 °F 23.2 °F 32.0 °F 93% 29.53 in 4.3 mi SE 17.3 mph - N/A Rain , Snow Light Rain
7:50 PM 33.8 °F 23.9 °F 33.8 °F 100% 29.50 in 3.7 mi SSE 15.0 mph - N/A Snow Light Snow Grains
8:20 PM 33.8 °F 23.9 °F 32.0 °F 93% 29.50 in 3.1 mi SE 15.0 mph - N/A Snow Light Snow Grains
8:50 PM 33.8 °F 24.3 °F 33.8 °F 100% 29.47 in 1.2 mi SE 13.8 mph - N/A Snow Snow
9:20 PM 33.8 °F 25.8 °F 33.8 °F 100% 29.47 in 0.5 mi SE 10.4 mph - N/A Snow Snow
9:50 PM 33.8 °F 26.4 °F 33.8 °F 100% 29.47 in 0.5 mi SE 9.2 mph - N/A Snow Snow
10:20 PM 33.8 °F 27.0 °F 33.8 °F 100% 29.44 in 0.5 mi ESE 8.1 mph - N/A Snow Snow
10:50 PM 33.8 °F 26.4 °F 33.8 °F 100% 29.44 in 0.5 mi SE 9.2 mph - N/A Snow Snow
11:20 PM 33.8 °F 27.7 °F 33.8 °F 100% 29.44 in 0.6 mi ESE 6.9 mph - N/A Snow Snow
11:50 PM 33.8 °F 27.0 °F 33.8 °F 100% 29.47 in 0.6 mi SE 8.1 mph - N/A Snow Light Snow